Location: ??????????
(42.1626°N, 44.1160°E)
Time: 12:12:57
(UTC+00:00)

Cosmos 968 Rocket - Pass Details

Date: 03 March 2021
Orbit: 740 x 771 km, 74.0° (Epoch: 20 April)

Event Time Altitude Azimuth Distance (km) Brightness Sun altitude
Rises 16:10:20 0° 335° (NNW) 3,248 7.2 -14.6°
Reaches altitude 10° 16:12:46 10° 330° (NNW) 2,320 6.5 -15.0°
Maximum altitude 16:17:51 50° 256° (WSW) 973 4.4 -16.0°
Drops below altitude 10° 16:22:54 10° 182° (S) 2,306 5.9 -16.9°
Sets 16:25:19 0° 177° (S) 3,227 6.6 -17.3°
